Time,TemperatureF,DewpointF,PressureIn,WindDirection,WindDirectionDegrees,WindSpeedMPH,WindSpeedGustMPH,Humidity,HourlyPrecipIn,Conditions,Clouds,dailyrainin,SoftwareType,DateUTC
2013-06-09 00:01:00,63.1,61.3,29.99,West,270,1.7,-999.0,94,-99.99,,,0.00,Acu-Link.com,2013-06-09 04:01:00,
2013-06-09 00:16:00,63.9,61.8,29.99,NW,315,3.2,-999.0,93,-99.99,,,0.00,Acu-Link.com,2013-06-09 04:16:00,
2013-06-09 00:31:00,63.5,61.4,29.99,ENE,67,0.0,-999.0,93,-99.99,,,0.00,Acu-Link.com,2013-06-09 04:31:00,
2013-06-09 01:01:00,62.8,61.0,29.98,ESE,112,0.0,-999.0,94,-99.99,,,0.00,Acu-Link.com,2013-06-09 05:01:00,
2013-06-09 01:32:00,61.3,59.9,29.99,WNW,292,0.0,-999.0,95,-99.99,,,0.00,Acu-Link.com,2013-06-09 05:32:00,
2013-06-09 01:47:00,61.2,60.0,29.98,ENE,67,0.0,-999.0,96,-99.99,,,0.00,Acu-Link.com,2013-06-09 05:47:00,
2013-06-09 02:02:00,61.2,60.0,29.98,ENE,67,1.7,-999.0,96,-99.99,,,0.00,Acu-Link.com,2013-06-09 06:02:00,
2013-06-09 02:17:00,63.1,61.6,29.98,South,180,2.7,-999.0,95,-99.99,,,0.00,Acu-Link.com,2013-06-09 06:17:00,
2013-06-09 02:32:00,63.7,61.9,29.98,SW,225,0.0,-999.0,94,-99.99,,,0.00,Acu-Link.com,2013-06-09 06:32:00,
2013-06-09 02:47:00,63.5,61.7,29.98,ESE,112,0.0,-999.0,94,-99.99,,,0.00,Acu-Link.com,2013-06-09 06:47:00,
2013-06-09 03:02:00,63.3,61.8,29.98,SW,225,0.0,-999.0,95,-99.99,,,0.00,Acu-Link.com,2013-06-09 07:02:00,
2013-06-09 03:17:00,63.1,61.6,29.97,NE,45,0.0,-999.0,95,-99.99,,,0.00,Acu-Link.com,2013-06-09 07:17:00,
2013-06-09 03:32:00,63.1,61.6,29.98,SW,225,0.0,-999.0,95,-99.99,,,0.00,Acu-Link.com,2013-06-09 07:32:00,
2013-06-09 03:48:00,63.0,61.5,29.98,West,270,0.0,-999.0,95,-99.99,,,0.00,Acu-Link.com,2013-06-09 07:48:00,
2013-06-09 04:03:00,63.1,61.9,29.98,NNW,337,0.0,-999.0,96,-99.99,,,0.00,Acu-Link.com,2013-06-09 08:03:00,
2013-06-09 04:18:00,63.1,61.9,29.98,NNE,22,0.0,-999.0,96,-99.99,,,0.00,Acu-Link.com,2013-06-09 08:18:00,
2013-06-09 04:33:00,63.3,62.1,29.98,NNE,22,0.0,-999.0,96,-99.99,,,0.00,Acu-Link.com,2013-06-09 08:33:00,
2013-06-09 04:49:00,63.5,62.3,29.99,West,270,0.0,-999.0,96,-99.99,,,0.00,Acu-Link.com,2013-06-09 08:49:00,
2013-06-09 05:04:00,63.3,62.1,29.99,NE,45,0.0,-999.0,96,-99.99,,,0.00,Acu-Link.com,2013-06-09 09:04:00,
2013-06-09 05:19:00,63.3,62.1,30.00,WSW,247,0.0,-999.0,96,-99.99,,,0.00,Acu-Link.com,2013-06-09 09:19:00,
2013-06-09 05:34:00,63.0,61.8,30.00,SW,225,0.0,-999.0,96,-99.99,,,0.00,Acu-Link.com,2013-06-09 09:34:00,
2013-06-09 05:49:00,62.4,61.2,29.99,NE,45,0.0,-999.0,96,-99.99,,,0.00,Acu-Link.com,2013-06-09 09:49:00,
2013-06-09 06:04:00,61.9,60.7,30.00,East,90,0.0,-999.0,96,-99.99,,,0.00,Acu-Link.com,2013-06-09 10:04:00,
2013-06-09 06:19:00,61.5,60.6,30.00,NNE,22,0.0,-999.0,97,-99.99,,,0.00,Acu-Link.com,2013-06-09 10:19:00,
2013-06-09 06:34:00,61.5,60.6,30.00,NNE,22,0.0,-999.0,97,-99.99,,,0.00,Acu-Link.com,2013-06-09 10:34:00,
2013-06-09 06:49:00,61.7,60.8,30.01,NNE,22,0.0,-999.0,97,-99.99,,,0.00,Acu-Link.com,2013-06-09 10:49:00,
2013-06-09 07:05:00,61.9,61.0,30.00,NE,45,0.0,-999.0,97,-99.99,,,0.00,Acu-Link.com,2013-06-09 11:05:00,
2013-06-09 07:20:00,62.8,62.2,30.01,South,180,0.0,-999.0,98,-99.99,,,0.00,Acu-Link.com,2013-06-09 11:20:00,
2013-06-09 07:35:00,64.0,63.4,30.02,West,270,0.0,-999.0,98,-99.99,,,0.00,Acu-Link.com,2013-06-09 11:35:00,
2013-06-09 07:50:00,65.1,63.9,30.03,West,270,0.0,-999.0,96,-99.99,,,0.00,Acu-Link.com,2013-06-09 11:50:00,
2013-06-09 08:05:00,66.4,64.6,30.03,South,180,2.2,-999.0,94,-99.99,,,0.00,Acu-Link.com,2013-06-09 12:05:00,
2013-06-09 08:20:00,67.6,65.5,30.03,SSE,157,2.2,-999.0,93,-99.99,,,0.00,Acu-Link.com,2013-06-09 12:20:00,
2013-06-09 08:35:00,69.4,66.7,30.04,NNE,22,1.7,-999.0,91,-99.99,,,0.00,Acu-Link.com,2013-06-09 12:35:00,
2013-06-09 08:50:00,71.1,67.4,30.04,West,270,0.0,-999.0,88,-99.99,,,0.00,Acu-Link.com,2013-06-09 12:50:00,
2013-06-09 09:05:00,69.1,66.4,30.04,East,90,3.7,-999.0,91,-99.99,,,0.00,Acu-Link.com,2013-06-09 13:05:00,
2013-06-09 09:21:00,69.4,66.3,30.05,ESE,112,2.2,-999.0,90,-99.99,,,0.00,Acu-Link.com,2013-06-09 13:21:00,
2013-06-09 09:36:00,70.3,66.9,30.05,NE,45,2.2,-999.0,89,-99.99,,,0.00,Acu-Link.com,2013-06-09 13:36:00,
2013-06-09 09:51:00,70.7,67.3,30.04,SE,135,2.7,-999.0,89,-99.99,,,0.00,Acu-Link.com,2013-06-09 13:51:00,
2013-06-09 10:06:00,71.8,66.3,30.04,South,180,2.2,-999.0,83,-99.99,,,0.00,Acu-Link.com,2013-06-09 14:06:00,
2013-06-09 10:51:00,74.7,66.6,30.03,ENE,67,2.2,-999.0,76,-99.99,,,0.00,Acu-Link.com,2013-06-09 14:51:00,
2013-06-09 11:06:00,76.6,67.3,30.03,East,90,1.7,-999.0,73,-99.99,,,0.00,Acu-Link.com,2013-06-09 15:06:00,
2013-06-09 11:21:00,76.3,67.0,30.03,West,270,2.2,-999.0,73,-99.99,,,0.00,Acu-Link.com,2013-06-09 15:21:00,
2013-06-09 11:37:00,75.4,65.3,30.02,SE,135,1.1,-999.0,71,-99.99,,,0.00,Acu-Link.com,2013-06-09 15:37:00,
2013-06-09 11:52:00,76.6,65.2,30.02,NE,45,2.2,-999.0,68,-99.99,,,0.00,Acu-Link.com,2013-06-09 15:52:00,
2013-06-09 12:07:00,77.5,62.5,30.02,SW,225,1.1,-999.0,60,-99.99,,,0.00,Acu-Link.com,2013-06-09 16:07:00,
2013-06-09 12:22:00,77.9,60.9,30.01,East,90,1.7,-999.0,56,-99.99,,,0.00,Acu-Link.com,2013-06-09 16:22:00,
2013-06-09 12:37:00,79.9,62.8,30.02,WSW,247,2.2,-999.0,56,-99.99,,,0.00,Acu-Link.com,2013-06-09 16:37:00,
2013-06-09 12:52:00,79.0,62.9,30.01,SSW,202,2.2,-999.0,58,-99.99,,,0.00,Acu-Link.com,2013-06-09 16:52:00,
2013-06-09 13:07:00,78.6,64.0,30.01,NE,45,1.7,-999.0,61,-99.99,,,0.00,Acu-Link.com,2013-06-09 17:07:00,
2013-06-09 13:22:00,76.3,67.0,30.00,SW,225,5.8,-999.0,73,-99.99,,,0.00,Acu-Link.com,2013-06-09 17:22:00,
2013-06-09 13:37:00,79.3,65.6,30.00,WNW,292,5.8,-999.0,63,-99.99,,,0.00,Acu-Link.com,2013-06-09 17:37:00,
2013-06-09 14:08:00,77.7,67.5,30.00,South,180,3.2,-999.0,71,-99.99,,,0.00,Acu-Link.com,2013-06-09 18:08:00,
2013-06-09 14:23:00,77.4,67.2,29.98,WSW,247,4.7,-999.0,71,-99.99,,,0.00,Acu-Link.com,2013-06-09 18:23:00,
2013-06-09 14:38:00,76.3,68.2,29.98,SW,225,2.2,-999.0,76,-99.99,,,0.00,Acu-Link.com,2013-06-09 18:38:00,
2013-06-09 14:53:00,78.4,65.6,29.97,WSW,247,5.3,-999.0,65,-99.99,,,0.00,Acu-Link.com,2013-06-09 18:53:00,
2013-06-09 15:08:00,80.2,67.8,29.97,SW,225,10.9,-999.0,66,-99.99,,,0.00,Acu-Link.com,2013-06-09 19:08:00,
2013-06-09 15:23:00,80.8,67.5,29.97,WSW,247,8.3,-999.0,64,-99.99,,,0.00,Acu-Link.com,2013-06-09 19:23:00,
2013-06-09 15:38:00,79.9,67.1,29.96,West,270,7.8,-999.0,65,-99.99,,,0.00,Acu-Link.com,2013-06-09 19:38:00,
2013-06-09 15:53:00,79.7,65.5,29.95,WNW,292,7.3,-999.0,62,-99.99,,,0.00,Acu-Link.com,2013-06-09 19:53:00,
2013-06-09 16:09:00,80.2,65.5,29.95,SSW,202,7.3,-999.0,61,-99.99,,,0.00,Acu-Link.com,2013-06-09 20:09:00,
2013-06-09 16:24:00,79.0,66.2,29.95,SW,225,5.8,-999.0,65,-99.99,,,0.00,Acu-Link.com,2013-06-09 20:24:00,
2013-06-09 16:39:00,78.6,64.5,29.94,WSW,247,5.8,-999.0,62,-99.99,,,0.00,Acu-Link.com,2013-06-09 20:39:00,
2013-06-09 16:54:00,80.2,64.5,29.94,West,270,6.8,-999.0,59,-99.99,,,0.00,Acu-Link.com,2013-06-09 20:54:00,
2013-06-09 17:09:00,80.4,64.7,29.95,SW,225,3.7,-999.0,59,-99.99,,,0.00,Acu-Link.com,2013-06-09 21:09:00,
2013-06-09 17:24:00,81.1,66.4,29.94,South,180,6.8,-999.0,61,-99.99,,,0.00,Acu-Link.com,2013-06-09 21:24:00,
2013-06-09 17:39:00,79.5,64.4,29.94,WNW,292,5.3,-999.0,60,-99.99,,,0.00,Acu-Link.com,2013-06-09 21:39:00,
2013-06-09 17:54:00,76.8,64.6,29.95,SSE,157,5.8,-999.0,66,-99.99,,,0.00,Acu-Link.com,2013-06-09 21:54:00,
2013-06-09 18:09:00,76.3,65.4,29.95,SW,225,5.8,-999.0,69,-99.99,,,0.00,Acu-Link.com,2013-06-09 22:09:00,
2013-06-09 18:25:00,76.1,65.6,29.95,WSW,247,6.3,-999.0,70,-99.99,,,0.00,Acu-Link.com,2013-06-09 22:25:00,
2013-06-09 18:40:00,75.0,65.7,29.95,SW,225,4.7,-999.0,73,-99.99,,,0.00,Acu-Link.com,2013-06-09 22:40:00,
2013-06-09 18:55:00,74.5,66.4,29.95,NNW,337,6.3,-999.0,76,-99.99,,,0.00,Acu-Link.com,2013-06-09 22:55:00,
2013-06-09 19:10:00,73.8,66.5,29.95,ESE,112,4.2,-999.0,78,-99.99,,,0.00,Acu-Link.com,2013-06-09 23:10:00,
2013-06-09 19:25:00,73.2,67.4,29.95,SW,225,6.3,-999.0,82,-99.99,,,0.00,Acu-Link.com,2013-06-09 23:25:00,
2013-06-09 19:40:00,72.5,67.0,29.95,West,270,6.3,-999.0,83,-99.99,,,0.00,Acu-Link.com,2013-06-09 23:40:00,
2013-06-09 19:55:00,72.0,66.9,29.95,SW,225,8.9,-999.0,84,-99.99,,,0.00,Acu-Link.com,2013-06-09 23:55:00,
2013-06-09 20:10:00,69.4,67.0,29.96,WSW,247,9.9,-999.0,92,-99.99,,,0.01,Acu-Link.com,2013-06-10 00:10:00,
2013-06-09 20:25:00,67.1,65.3,29.97,WSW,247,10.4,-999.0,94,-99.99,,,0.04,Acu-Link.com,2013-06-10 00:25:00,
2013-06-09 20:41:00,65.5,63.7,29.98,NE,45,2.7,-999.0,94,-99.99,,,0.38,Acu-Link.com,2013-06-10 00:41:00,
2013-06-09 20:56:00,64.6,62.8,29.97,SSE,157,0.0,-999.0,94,-99.99,,,0.42,Acu-Link.com,2013-06-10 00:56:00,
2013-06-09 21:11:00,63.9,62.4,29.98,SW,225,5.8,-999.0,95,-99.99,,,0.42,Acu-Link.com,2013-06-10 01:11:00,
2013-06-09 21:28:00,63.7,62.5,29.97,WSW,247,0.0,-999.0,96,-99.99,,,0.42,Acu-Link.com,2013-06-10 01:28:00,
2013-06-09 21:45:00,63.7,62.5,29.97,SW,225,0.0,-999.0,96,-99.99,,,0.42,Acu-Link.com,2013-06-10 01:45:00,
2013-06-09 22:00:00,63.7,62.8,29.96,West,270,0.0,-999.0,97,-99.99,,,0.43,Acu-Link.com,2013-06-10 02:00:00,
2013-06-09 22:16:00,63.5,62.6,29.96,SW,225,2.2,-999.0,97,-99.99,,,0.43,Acu-Link.com,2013-06-10 02:16:00,
2013-06-09 22:31:00,63.5,62.6,29.97,East,90,0.0,-999.0,97,-99.99,,,0.43,Acu-Link.com,2013-06-10 02:31:00,
2013-06-09 22:47:00,63.5,62.6,29.96,SW,225,1.7,-999.0,97,-99.99,,,0.43,Acu-Link.com,2013-06-10 02:47:00,
2013-06-09 23:02:00,63.5,62.6,29.96,SSW,202,1.7,-999.0,97,-99.99,,,0.43,Acu-Link.com,2013-06-10 03:02:00,
2013-06-09 23:18:00,63.5,62.6,29.96,WSW,247,1.7,-999.0,97,-99.99,,,0.43,Acu-Link.com,2013-06-10 03:18:00,
2013-06-09 23:33:00,63.5,62.6,29.95,WSW,247,2.2,-999.0,97,-99.99,,,0.43,Acu-Link.com,2013-06-10 03:33:00,
2013-06-09 23:49:00,63.5,62.6,29.95,SE,135,2.2,-999.0,97,-99.99,,,0.43,Acu-Link.com,2013-06-10 03:49:00,